Location: *
(57.8420°S, 159.8600°W)
Time: 04:10:18
(UTC+00:00)

IRIDIUM 114 - Pass Details

Date: 18 May 2021
Orbit: 776 x 779 km, 86.4° (Epoch: 23 June)

Event Time Altitude Azimuth Distance (km) Brightness Sun altitude
Rises 03:32:11 0° 185° (S) 3,309 7.4 -8.4°
Reaches altitude 10° 03:34:36 10° 181° (S) 2,375 6.6 -8.7°
Maximum altitude 03:39:52 59° 101° (E) 917 4.4 -9.4°
Drops below altitude 10° 03:45:05 10° 21° (NNE) 2,350 6.8 -10.0°
Sets 03:47:27 0° 17° (NNE) 3,272 7.6 -10.3°
